DW9572 Weather Reports


Display with metric or nautical units.
time (UTC)temp
F
wind
direction
speed
MPH
gust
MPH
rain 1hr
in
rain 24hr
in
rain mn
in
humidity
%
barometer
mb
20260509041600 68 356 11.0 16.0 0.00 0.00 0.00 31 1015.5
20260509040048 68 349 9.0 14.0 0.00 0.00 0.00 29 1015.3
20260509034545 69 338 10.0 19.0 0.00 0.00 0.00 28 1014.9
20260509033058 69 332 11.0 18.0 0.00 0.00 0.00 27 1014.7
20260509031540 69 324 13.0 20.0 0.00 0.00 0.00 25 1014.5
20260509030039 70 326 11.0 20.0 0.00 0.00 0.00 23 1014.3
20260509024540 71 355 13.0 18.0 0.00 0.00 0.00 21 1014.0
20260509023036 72 347 14.0 23.0 0.00 0.00 0.00 20 1013.8
20260509021534 73 352 14.0 21.0 0.00 0.00 0.00 18 1013.7
20260509020022 74 350 16.0 23.0 0.00 0.00 0.00 17 1013.5
20260509014518 75 341 13.0 24.0 0.00 0.00 0.00 17 1013.4
20260509013001 76 336 17.0 24.0 0.00 0.00 0.00 17 1013.3
20260509011504 77 360 16.0 24.0 0.00 0.00 0.00 17 1013.2
20260509010101 78 343 10.0 21.0 0.00 0.00 0.00 18 1013.1
20260509004603 78 338 14.0 22.0 0.00 0.00 0.00 18 1013.2
20260509003102 79 336 10.0 20.0 0.00 0.00 0.00 16 1012.9
20260509001559 79 32 10.0 18.0 0.00 0.00 0.00 18 1012.8
20260509000058 80 358 9.0 16.0 0.00 0.00 0.00 17 1012.8
20260508234558 80 9 10.0 17.0 0.00 0.00 0.00 16 1012.7
20260508233039 80 309 5.0 18.0 0.00 0.00 0.00 18 1012.6
20260508231545 80 340 5.0 15.0 0.00 0.00 0.00 19 1012.7
20260508230020 79 285 0.0 12.0 0.00 0.00 0.00 18 1012.7
20260508224540 79 340 9.0 23.0 0.00 0.00 0.00 17 1012.9
20260508223100 79 301 10.0 20.0 0.00 0.00 0.00 17 1013.0
20260508223002 79 318 12.0 20.0 0.00 0.00 0.00 17 1012.9
20260508221610 79 205 12.0 26.0 0.00 0.00 0.00 17 1012.8
20260508220041 78 243 10.0 21.0 0.00 0.00 0.00 20 1012.9
20260508214546 79 304 10.0 19.0 0.00 0.00 0.00 19 1013.1
20260508213030 78 254 9.0 17.0 0.00 0.00 0.00 20 1013.0
20260508211524 79 312 9.0 22.0 0.00 0.00 0.00 18 1013.1
20260508210001 78 311 10.0 18.0 0.00 0.00 0.00 17 1013.1
20260508204559 77 278 13.0 18.0 0.00 0.00 0.00 19 1013.2
20260508203039 76 278 7.0 17.0 0.00 0.00 0.00 18 1013.1
20260508201540 76 301 11.0 19.0 0.00 0.00 0.00 16 1013.3
20260508200029 74 261 14.0 25.0 0.00 0.00 0.00 19 1013.1
20260508194515 74 278 16.0 28.0 0.00 0.00 0.00 20 1013.2
20260508193003 74 284 18.0 27.0 0.00 0.00 0.00 20 1013.0
20260508191500 74 249 17.0 25.0 0.00 0.00 0.00 22 1013.0
20260508190100 73 260 16.0 22.0 0.00 0.00 0.00 23 1013.1
20260508184559 74 256 15.0 24.0 0.00 0.00 0.00 25 1013.3
20260508183124 73 210 17.0 24.0 0.00 0.00 0.00 26 1013.4
20260508181610 73 203 17.0 24.0 0.00 0.00 0.00 26 1013.5
20260508180051 72 269 17.0 23.0 0.00 0.00 0.00 28 1013.5
20260508174549 71 248 14.0 23.0 0.00 0.00 0.00 29 1013.6
20260508173028 68 214 16.0 21.0 0.00 0.00 0.00 35 1013.7
20260508171533 66 191 13.0 19.0 0.00 0.00 0.00 39 1013.8
20260508170004 66 222 15.0 22.0 0.00 0.00 0.00 39 1013.7
20260508164504 66 255 17.0 21.0 0.00 0.00 0.00 40 1013.7
20260508163048 65 195 13.0 19.0 0.00 0.00 0.00 41 1013.7
20260508161542 65 191 10.0 20.0 0.00 0.00 0.00 42 1013.8
20260508160023 64 128 0.0 7.0 0.00 0.00 0.00 45 1013.7
20260508154520 63 14 0.0 9.0 0.00 0.00 0.00 45 1013.5
20260508153005 62 291 8.0 19.0 0.00 0.00 0.00 45 1013.5
20260508151504 61 183 4.0 14.0 0.00 0.00 0.00 47 1013.3
20260508150124 60 165 8.0 13.0 0.00 0.00 0.00 50 1013.3
20260508144604 58 198 2.0 7.0 0.00 0.00 0.00 54 1013.4
20260508143055 57 278 2.0 6.0 0.00 0.00 0.00 57 1013.4
20260508141602 54 127 0.0 0.0 0.00 0.00 0.00 61 1013.2
20260508140059 54 127 0.0 0.0 0.00 0.00 0.00 59 1013.2
20260508134551 54 266 0.0 0.0 0.00 0.00 0.00 59 1013.0
20260508133035 52 121 0.0 0.0 0.00 0.00 0.00 59 1012.9
20260508131533 52 62 0.0 0.0 0.00 0.00 0.00 60 1012.7
20260508130013 50 62 0.0 2.0 0.00 0.00 0.00 60 1012.6
20260508124511 52 127 0.0 4.0 0.00 0.00 0.00 58 1012.5
20260508123043 53 97 3.0 5.0 0.00 0.00 0.00 56 1012.4
20260508121540 56 77 3.0 7.0 0.00 0.00 0.00 48 1012.3
20260508120022 59 274 8.0 11.0 0.00 0.00 0.00 47 1012.3
20260508114529 59 281 8.0 11.0 0.00 0.00 0.00 47 1012.2
20260508113126 59 301 7.0 11.0 0.00 0.00 0.00 46 1012.1
20260508111601 58 278 7.0 16.0 0.00 0.00 0.00 47 1012.0
20260508110041 57 278 6.0 14.0 0.00 0.00 0.00 48 1011.8
20260508104553 57 283 6.0 12.0 0.00 0.00 0.00 48 1011.8
20260508103026 58 266 9.0 13.0 0.00 0.00 0.00 45 1011.7
20260508101532 59 271 10.0 16.0 0.00 0.00 0.00 42 1011.6
20260508100011 59 267 9.0 14.0 0.00 0.00 0.00 42 1011.5
20260508094510 59 294 4.0 10.0 0.00 0.00 0.00 42 1011.6
20260508093014 58 279 6.0 13.0 0.00 0.00 0.00 41 1011.5
20260508091509 59 259 10.0 17.0 0.00 0.00 0.00 40 1011.6
20260508090008 58 271 8.0 12.0 0.00 0.00 0.00 42 1011.7
20260508084508 58 274 9.0 12.0 0.00 0.00 0.00 44 1011.7
20260508083009 59 272 9.0 14.0 0.00 0.00 0.00 43 1011.8
20260508081509 59 283 9.0 12.0 0.00 0.00 0.00 45 1011.7
20260508080007 59 278 7.0 9.0 0.00 0.00 0.00 44 1011.7
20260508074553 61 266 6.0 9.0 0.00 0.00 0.00 41 1011.7
20260508073149 62 281 7.0 9.0 0.00 0.00 0.00 39 1011.6
20260508071532 62 263 5.0 7.0 0.00 0.00 0.00 41 1011.7
20260508070031 63 286 2.0 6.0 0.00 0.00 0.00 39 1011.6
20260508064546 64 303 2.0 6.0 0.00 0.00 0.00 38 1011.5
20260508063026 65 285 0.0 0.0 0.00 0.00 0.00 38 1011.5
20260508061519 64 330 1.0 2.0 0.00 0.00 0.00 38 1011.5
20260508060019 69 346 8.0 8.0 0.00 0.00 0.00 32 1011.3
20260508054529 69 338 6.0 8.0 0.00 0.00 0.00 31 1011.3
20260508053018 65 336 0.0 0.0 0.00 0.00 0.00 38 1011.2
20260508051524 67 293 2.0 4.0 0.00 0.00 0.00 37 1011.0
20260508050030 68 295 1.0 3.0 0.00 0.00 0.00 37 1011.0
20260508044559 68 323 1.0 4.0 0.00 0.00 0.00 36 1010.9
20260508043101 70 281 3.0 5.0 0.00 0.00 0.00 37 1010.9